Belen, NM

1:00 PM MDT on June 26, 2017 (GMT -0600)
Belen

Weather History for KE80 - August, 2013

Change the Weather History Date:

Thursday, August 8, 2013

  Actual Average (KABQ) Record (KABQ)
Temperature  
Mean Temperature 74 °F -  
Max Temperature 89 °F 91 °F 98 °F (1911)
Min Temperature 60 °F 63 °F 49 °F (1912)
Cooling Degree Days 10    
Growing Degree Days 24 (Base 50)    
Moisture  
Dew Point 49 °F    
Average Humidity 47    
Maximum Humidity 86    
Minimum Humidity 18    
Precipitation  
Precipitation 0.00 in - - ()
Sea Level Pressure  
Sea Level Pressure 30.11 in    
Wind  
Wind Speed 4 mph (NW)    
Max Wind Speed 20 mph    
Max Gust Speed 24 mph    
Visibility 10 miles    
Events      
Averages and records for this station are not official NWS values.
T = Trace of Precipitation, MM = Missing Value Source: NWS Daily Summary

Daily Weather History Graph

Daily Weather History Graph

Search for Another Location

Airport or City:

Trip Planner

Search our weather history database for the weather conditions in past years. The results will help you decide how hot, cold, wet, or windy it might be!

Date:

Astronomy

Aug. 08, 2013 Rise Set
Actual Time 6:22 AM MDT 8:02 PM MDT
Civil Twilight 5:55 AM MDT 8:29 PM MDT
Nautical Twilight 5:23 AM MDT 9:02 PM MDT
Astronomical Twilight 4:48 AM MDT 9:36 PM MDT
Moon 8:05 AM MDT (8/8) 8:50 PM MDT (8/8)
Length of Visible Light 14h 33m
Length of Day
13h 39m
Waxing Crescent, 3% of the Moon is Illuminated
Aug 8
Waxing Crescent
Aug 14
First Quarter
Aug 20
Full
Aug 28
Last Quarter
Sep 5
New

Hourly Weather History & Observations

Time (MDT) Temp. Dew Point Humidity Pressure Visibility Wind Dir Wind Speed Gust Speed Precip Events Conditions
12:15 AM 66.7 °F 56.5 °F 70% 30.12 in 10.0 mi Calm Calm - N/A   Mostly Cloudy
12:35 AM 67.8 °F 55.8 °F 65% 30.12 in 10.0 mi Calm Calm - N/A   Scattered Clouds
12:55 AM 65.5 °F 56.3 °F 72% 30.12 in 10.0 mi West 3.5 mph - N/A   Clear
1:15 AM 63.3 °F 56.3 °F 78% 30.12 in 10.0 mi Calm Calm - N/A   Clear
1:35 AM 65.5 °F 55.9 °F 71% 30.12 in 10.0 mi Calm Calm - N/A   Clear
1:55 AM 63.5 °F 55.9 °F 76% 30.12 in 10.0 mi Calm Calm - N/A   Clear
2:15 AM 65.3 °F 55.9 °F 72% 30.12 in 10.0 mi Calm Calm - N/A   Clear
2:35 AM 63.9 °F 56.3 °F 76% 30.12 in 10.0 mi NNW 4.6 mph - N/A   Mostly Cloudy
2:55 AM 64.4 °F 55.9 °F 74% 30.11 in 10.0 mi NW 3.5 mph - N/A   Scattered Clouds
3:15 AM 61.7 °F 56.1 °F 82% 30.11 in 10.0 mi Calm Calm - N/A   Clear
3:35 AM 62.4 °F 55.6 °F 78% 30.10 in 10.0 mi WNW 4.6 mph - N/A   Scattered Clouds
3:55 AM 61.7 °F 56.3 °F 82% 30.10 in 10.0 mi West 5.8 mph - N/A   Mostly Cloudy
4:15 AM 63.3 °F 57.0 °F 80% 30.10 in 10.0 mi WNW 4.6 mph - N/A   Overcast
4:35 AM 63.0 °F 57.4 °F 82% 30.10 in 10.0 mi WNW 3.5 mph - N/A   Overcast
4:55 AM 63.5 °F 57.9 °F 82% 30.09 in 10.0 mi West 3.5 mph - N/A   Overcast
5:15 AM 63.9 °F 58.1 °F 81% 30.10 in 10.0 mi WNW 4.6 mph - N/A   Overcast
5:35 AM 64.0 °F 57.4 °F 79% 30.11 in 10.0 mi East 3.5 mph - N/A   Overcast
5:55 AM 62.6 °F 57.2 °F 82% 30.11 in 10.0 mi ESE 3.5 mph - N/A   Mostly Cloudy
6:15 AM 61.7 °F 56.8 °F 84% 30.12 in 10.0 mi ESE 3.5 mph - N/A   Scattered Clouds
6:35 AM 60.8 °F 56.7 °F 86% 30.12 in 10.0 mi Calm Calm - N/A   Mostly Cloudy
6:55 AM 62.4 °F 56.8 °F 82% 30.13 in 10.0 mi Calm Calm - N/A   Scattered Clouds
7:15 AM 64.2 °F 57.6 °F 79% 30.14 in 10.0 mi ENE 3.5 mph - N/A   Clear
7:35 AM 66.6 °F 57.2 °F 72% 30.14 in 10.0 mi East 3.5 mph - N/A   Clear
7:55 AM 67.8 °F 56.8 °F 68% 30.14 in 10.0 mi SE 3.5 mph - N/A   Clear
8:15 AM 68.0 °F 56.5 °F 67% 30.15 in 10.0 mi Calm Calm - N/A   Clear
8:35 AM 69.4 °F 55.6 °F 61% 30.15 in 10.0 mi Calm Calm - N/A   Clear
8:55 AM 69.8 °F 54.9 °F 59% 30.16 in 10.0 mi Calm Calm - N/A   Clear
9:15 AM 70.9 °F 54.3 °F 56% 30.16 in 10.0 mi Calm Calm - N/A   Clear
9:35 AM 71.6 °F 53.1 °F 52% 30.16 in 10.0 mi Calm Calm - N/A   Clear
9:55 AM 72.3 °F 52.3 °F 49% 30.16 in 10.0 mi North 8.1 mph - N/A   Clear
10:15 AM 73.0 °F 51.1 °F 46% 30.16 in 10.0 mi NNW 5.8 mph - N/A   Clear
10:35 AM 74.5 °F 51.8 °F 45% 30.17 in 10.0 mi WNW 5.8 mph - N/A   Clear
10:55 AM 75.0 °F 51.3 °F 43% 30.16 in 10.0 mi NW 3.5 mph - N/A   Clear
11:15 AM 76.3 °F 50.2 °F 40% 30.16 in 10.0 mi WNW 8.1 mph - N/A   Clear
11:35 AM 77.9 °F 49.6 °F 37% 30.16 in 10.0 mi North 8.1 mph - N/A   Clear
11:55 AM 79.0 °F 48.4 °F 34% 30.15 in 10.0 mi North 8.1 mph - N/A   Clear
12:15 PM 80.1 °F 46.9 °F 31% 30.14 in 10.0 mi North 6.9 mph 18.4 mph N/A   Clear
12:35 PM 81.5 °F 46.2 °F 29% 30.14 in 10.0 mi WNW 8.1 mph 16.1 mph N/A   Clear
12:55 PM 81.7 °F 45.9 °F 28% 30.14 in 10.0 mi NNW 3.5 mph 18.4 mph N/A   Clear
1:15 PM 81.7 °F 45.9 °F 28% 30.13 in 10.0 mi West 8.1 mph - N/A   Clear
1:35 PM 82.2 °F 45.3 °F 27% 30.13 in 10.0 mi NW 9.2 mph - N/A   Scattered Clouds
1:55 PM 82.4 °F 45.3 °F 27% 30.12 in 10.0 mi West 9.2 mph - N/A   Scattered Clouds
2:15 PM 84.4 °F 44.8 °F 25% 30.11 in 10.0 mi North 5.8 mph - N/A   Clear
2:35 PM 85.3 °F 44.4 °F 24% 30.11 in 10.0 mi WNW 6.9 mph - N/A   Scattered Clouds
2:55 PM 88.0 °F 39.9 °F 18% 30.10 in 10.0 mi WNW 19.6 mph 24.2 mph N/A   Scattered Clouds
3:15 PM 88.2 °F 40.3 °F 19% 30.09 in 10.0 mi WNW 15.0 mph 24.2 mph N/A   Clear
3:35 PM 87.3 °F 39.2 °F 18% 30.08 in 10.0 mi NW 16.1 mph 20.7 mph N/A   Scattered Clouds
3:55 PM 87.4 °F 40.5 °F 19% 30.08 in 10.0 mi West 11.5 mph 17.3 mph N/A   Scattered Clouds
4:15 PM 88.2 °F 40.1 °F 18% 30.07 in 10.0 mi WNW 8.1 mph - N/A   Scattered Clouds
4:35 PM 89.1 °F 41.9 °F 19% 30.07 in 10.0 mi WSW 12.7 mph - N/A   Scattered Clouds
4:55 PM 86.4 °F 40.6 °F 20% 30.07 in 10.0 mi NNW 9.2 mph - N/A   Mostly Cloudy
5:15 PM 86.2 °F 40.3 °F 20% 30.06 in 10.0 mi NW 10.4 mph 17.3 mph N/A   Mostly Cloudy
5:35 PM 88.0 °F 40.3 °F 19% 30.06 in 10.0 mi NW 11.5 mph - N/A   Scattered Clouds
5:55 PM 87.6 °F 40.6 °F 19% 30.06 in 10.0 mi WNW 8.1 mph - N/A   Scattered Clouds
6:15 PM 87.8 °F 39.2 °F 18% 30.05 in 10.0 mi WNW 10.4 mph 17.3 mph N/A   Scattered Clouds
6:35 PM 86.7 °F 39.7 °F 19% 30.05 in 10.0 mi NW 8.1 mph - N/A   Scattered Clouds
6:55 PM 84.9 °F 39.9 °F 20% 30.05 in 10.0 mi NW 8.1 mph - N/A   Clear
7:15 PM 84.2 °F 41.4 °F 22% 30.05 in 10.0 mi NW 8.1 mph - N/A   Scattered Clouds
7:35 PM 83.5 °F 41.0 °F 22% 30.06 in 10.0 mi NW 10.4 mph - N/A   Scattered Clouds
7:55 PM 83.1 °F 40.1 °F 22% 30.07 in 10.0 mi NNW 9.2 mph - N/A   Scattered Clouds
8:15 PM 79.2 °F 42.4 °F 27% 30.07 in 10.0 mi North 5.8 mph - N/A   Scattered Clouds
8:35 PM 79.7 °F 41.9 °F 26% 30.08 in 10.0 mi North 6.9 mph - N/A   Mostly Cloudy
8:55 PM 78.6 °F 42.1 °F 27% 30.09 in 10.0 mi North 8.1 mph - N/A   Mostly Cloudy
9:15 PM 76.6 °F 43.2 °F 30% 30.09 in 10.0 mi North 6.9 mph - N/A   Mostly Cloudy
9:35 PM 78.1 °F 38.3 °F 24% 30.11 in 10.0 mi North 16.1 mph - N/A   Scattered Clouds
9:55 PM 77.2 °F 38.8 °F 25% 30.12 in 10.0 mi North 13.8 mph 19.6 mph N/A   Mostly Cloudy
10:15 PM 75.6 °F 41.2 °F 29% 30.12 in 10.0 mi North 11.5 mph - N/A   Mostly Cloudy
10:35 PM 74.3 °F 42.1 °F 31% 30.13 in 10.0 mi North 9.2 mph - N/A   Scattered Clouds
10:55 PM 71.6 °F 42.4 °F 35% 30.14 in 10.0 mi North 9.2 mph - N/A   Clear
11:15 PM 69.6 °F 43.7 °F 39% 30.14 in 10.0 mi NNW 6.9 mph - N/A   Clear
11:35 PM 66.2 °F 46.0 °F 48% 30.14 in 10.0 mi NW 5.8 mph - N/A   Clear
11:55 PM 68.0 °F 45.3 °F 44% 30.14 in 10.0 mi NW 6.9 mph - N/A   Clear